Flag for Canada Weather past 2 weeks in Windsor, Ontario, Canada

54 °F

Partly sunny.

Feels Like: 50 °F
Forecast: N/A
Wind: 13 mph from South

Location: Windsor Weather Station

Current Time: Nov 25, 2015 at 4:07:01 PM

Latest Report: Nov 25, 2015 at 3:00 PM

Visibility: 15 mi

Pressure: 30.36 "Hg

Humidity: 58%

Dew point: 39 °F

Location of WindsorLocation

Historic Weather in Windsor — Graph


Windsor temperature yesterday

Maximum temperature yesterday: 39 °F (at 4:00 PM)
Minimum temperature yesterday: 25 °F (at 5:00 AM)
Average temperature yesterday: 32 °F

Past Weeks' High & Low Weather Summary

High63 °F (Nov 15, 3:00 PM)100% (Nov 11, 1:00 AM)30.48 "Hg (Nov 11, 1:00 AM)
Low19 °F (Nov 22, 11:00 PM)29% (Nov 19, 6:00 PM)29.34 "Hg (Nov 12, 8:00 AM)
Average42 °F74%30.06 "Hg
* Reported Nov 10 2:00 PM — Nov 25 2:00 PM, Windsor, Weather by CustomWeather, © 2015

Note: Actual official high and low records may vary slightly from our data, if they occured in-between our weather recording intervals... More about our weather records


Windsor weather history for previous 24 hours

Time TempWeatherWind HumidityBarometerVisibility
2:00 PM
Wed, Nov 25
54 °FPartly sunny.16 mph58%30.39 "Hg15 mi
1:00 PM52 °FPartly sunny.10 mph62%30.43 "Hg15 mi
12:00 PM50 °FScattered clouds.12 mph71%30.46 "Hg15 mi
11:00 AM46 °FPassing clouds.14 mph71%30.47 "Hg15 mi
10:00 AM41 °FPassing clouds.8 mph87%30.48 "Hg15 mi
9:00 AM36 °FPartly sunny.6 mph93%30.47 "Hg15 mi
8:00 AM32 °FPartly sunny.6 mph93%30.46 "Hg12 mi
7:00 AM32 °FPassing clouds.6 mph93%30.45 "Hg10 mi
6:00 AM32 °FClear.5 mph93%30.45 "Hg12 mi
5:00 AM32 °FClear.8 mph93%30.45 "Hg15 mi
4:00 AM32 °FPassing clouds.7 mph93%30.44 "Hg15 mi
3:00 AM32 °FPassing clouds.7 mph87%30.44 "Hg12 mi
2:00 AM30 °FPassing clouds.5 mph93%30.43 "Hg10 mi
1:00 AM30 °FPassing clouds.3 mph93%30.43 "Hg10 mi
12:00 AM30 °FPartly cloudy.5 mph93%30.43 "Hg12 mi
11:00 PM
Tue, Nov 24
30 °FPassing clouds.2 mph100%30.44 "Hg10 mi
10:00 PM28 °FPartly cloudy.3 mph100%30.43 "Hg8 mi
9:00 PM30 °FPassing clouds.3 mph100%30.42 "Hg10 mi
8:00 PM30 °FPassing clouds.3 mph100%30.42 "Hg10 mi
7:00 PM32 °FPassing clouds.3 mph93%30.42 "Hg10 mi
6:00 PM36 °FPassing clouds.3 mph87%30.41 "Hg10 mi
5:00 PM37 °FBroken clouds.No wind81%30.40 "Hg10 mi
4:00 PM39 °FPartly sunny.8 mph81%30.39 "Hg10 mi
Weather by CustomWeather, © 2015

See weather overviewHow to use our weather pages